Estación municipal de St. Hilari Sacalm (La Selva, Guilleries)

Consulta los datos en tiempo real de la estación municipal de St. Hilari Sacalm





Hora UTC 15:00
Temperatura 14.3 ºC
Humedad 77.6 %
Presión 1010.7 hPa
Pluja 0.1 mm
Velocidad viento 3.8 km/h
Dirección viento ESE
Radiación solar 112.7 W/m²

Webcam

Datos diarios 2026-05-05



Hora UTC (invierno +1h; verano +2h)
Temperatura (ºC) Humedad (%) Presión (hPa) Velocidad viento (km/h) Precipitación (mm) Radiación solar (W/m²)
Hora UTC Aire Humedad Presión Vel. Dir. Vel. Max Dir. Intent. máx 5 min. Rad. Sol.
00:05 9.4 90.1 1012.1 1.9 W 1.9 W 0.0 0.1
00:10 9.2 90.2 1012.1 1.0 NW 8.8 WNW 0.0 0.1
00:15 9.2 90.9 1012.1 4.4 NW 16.9 WNW 0.0 0.1
00:20 9.2 91.3 1012.1 1.7 WSW 11.5 NW 0.0 0.1
00:25 9.2 91.6 1012.1 5.6 W 19.6 WNW 0.0 0.1
00:30 9.1 92.0 1012.1 2.1 W 11.5 W 0.0 0.1
00:35 9.1 92.2 1012.1 2.5 WSW 16.9 WNW 0.0 0.1
00:40 9.0 92.3 1012.1 2.5 WSW 11.5 SW 0.0 0.1
00:45 9.0 92.7 1012.0 1.2 W 11.5 W 0.0 0.1
00:50 8.9 92.9 1012.0 0.9 WSW 14.2 SW 0.0 0.1
00:55 8.9 92.9 1012.0 0.1 W 6.1 W 0.0 0.1
01:00 8.8 92.9 1012.0 0.9 NNW 8.8 NNW 0.0 0.1
01:05 8.5 92.8 1011.9 1.1 NNW 11.5 WNW 0.0 0.1
01:10 8.5 93.5 1011.8 0.3 NW 8.8 NW 0.0 0.1
01:15 8.5 93.5 1011.8 0.0 NNE 0.0 NE 0.0 0.1
01:20 8.4 93.5 1011.9 0.0 NNE 0.0 W 0.0 0.1
01:25 8.2 93.4 1011.9 0.0 NNE 0.0 W 0.0 0.1
01:30 8.2 93.8 1012.0 0.0 NNE 0.0 SW 0.0 0.1
01:35 8.1 93.8 1012.0 0.0 NNE 0.0 SW 0.0 0.1
01:40 8.2 94.1 1012.0 0.0 NNE 0.0 NW 0.0 0.1
01:45 8.2 93.8 1011.9 0.0 NNE 0.0 WNW 0.0 0.1
01:50 8.1 93.7 1011.9 0.0 NNE 0.0 W 0.0 0.1
01:55 8.1 93.5 1011.8 0.0 NNE 0.0 W 0.0 0.1
02:00 8.0 93.5 1011.8 0.0 NNE 0.0 NW 0.0 0.1
02:05 8.0 93.4 1011.8 0.4 WSW 8.8 WSW 0.0 0.1
02:10 8.1 93.4 1011.8 3.6 WNW 14.2 SW 0.0 0.1
02:15 8.3 93.1 1011.8 4.9 WNW 16.9 NW 0.0 0.1
02:20 8.4 92.3 1011.8 3.8 WNW 16.9 NW 0.0 0.1
02:25 8.5 91.6 1011.8 5.5 WNW 14.2 NNW 0.0 0.1
02:30 8.6 90.8 1011.9 6.6 WNW 19.6 NNW 0.0 0.1
02:35 8.7 90.5 1011.9 7.5 WNW 19.6 WNW 0.0 0.1
02:40 8.6 90.5 1011.9 4.4 WNW 14.2 NW 0.0 0.1
02:45 8.5 90.7 1011.8 3.5 WNW 14.2 WNW 0.0 0.1
02:50 8.5 91.1 1011.8 3.7 W 16.9 W 0.0 0.1
02:55 8.5 91.3 1011.8 3.8 W 14.2 WNW 0.0 0.1
03:00 8.4 91.4 1011.8 2.5 W 11.5 WNW 0.0 0.1
03:05 8.3 91.6 1011.8 0.0 NNE 0.0 WSW 0.0 0.1
03:10 8.2 91.7 1011.8 1.1 WNW 11.5 NW 0.0 0.1
03:15 8.2 91.8 1011.7 4.3 W 14.2 SW 0.0 0.1
03:20 8.2 91.9 1011.7 5.2 W 14.2 NW 0.0 0.1
03:25 8.3 91.7 1011.7 0.9 SW 14.2 W 0.0 0.1
03:30 8.3 91.5 1011.7 0.1 WSW 3.4 SW 0.0 0.1
03:35 8.2 91.1 1011.8 0.1 NW 6.1 NW 0.0 0.1
03:40 8.0 91.1 1011.7 0.6 NW 6.1 WNW 0.0 0.1
03:45 8.1 91.2 1011.7 0.4 W 11.5 WSW 0.0 0.1
03:50 8.2 90.1 1011.6 0.1 WNW 6.1 NW 0.0 0.1
03:55 8.1 89.4 1011.6 0.0 NNE 0.0 WNW 0.0 0.1
04:00 8.0 89.1 1011.6 0.1 SW 6.1 SSW 0.0 0.1
04:05 7.9 89.2 1011.6 0.0 NNE 0.0 W 0.0 0.1
04:10 7.8 89.7 1011.6 0.1 SW 3.4 SSW 0.0 0.1
04:15 7.7 90.4 1011.6 2.2 SW 8.8 SSW 0.0 0.1
04:20 7.5 90.9 1011.6 0.7 SW 8.8 SW 0.0 0.1
04:25 7.5 91.4 1011.6 0.5 S 6.1 SSW 0.0 0.3
04:30 7.5 91.7 1011.7 0.3 SSW 6.1 SSW 0.0 0.7
04:35 7.4 91.8 1011.7 0.0 NNE 0.0 SSW 0.0 1.8
04:40 7.3 91.9 1011.7 0.0 NNE 0.0 SW 0.0 3.2
04:45 7.2 91.9 1011.7 0.0 NNE 0.0 SW 0.0 5.1
04:50 7.1 92.2 1011.7 0.0 SW 3.4 SW 0.0 7.2
04:55 7.0 92.4 1011.7 0.5 WSW 8.8 SW 0.0 9.5
05:00 7.0 92.6 1011.7 0.0 NNE 0.0 WSW 0.0 12.6
05:05 7.0 93.0 1011.8 0.3 WSW 8.8 SW 0.0 15.6
05:10 7.1 93.3 1011.8 0.0 NNE 0.0 WSW 0.0 35.7
05:15 7.2 93.5 1011.9 0.0 NNE 0.0 SW 0.0 74.6
05:20 7.6 93.2 1011.9 0.0 NNE 0.0 SSW 0.0 87.9
05:25 8.3 92.4 1011.9 0.0 NNE 0.0 WSW 0.0 81.0
05:30 9.0 91.1 1011.9 0.0 NNE 0.0 SW 0.0 104.9
05:35 9.4 89.3 1012.0 0.0 NNE 0.0 W 0.0 126.5
05:40 9.4 88.2 1012.0 0.0 NNE 0.0 SW 0.0 139.5
05:45 10.0 87.9 1012.0 0.0 NNE 0.0 SW 0.0 153.0
05:50 10.7 86.3 1012.0 0.0 NNE 0.0 WSW 0.0 166.9
05:55 11.4 84.7 1012.0 0.0 NNE 0.0 SW 0.0 181.1
06:00 12.3 82.3 1012.0 0.0 NNE 0.0 SW 0.0 195.9
06:05 13.0 78.9 1012.0 0.0 NNE 0.0 WSW 0.0 211.1
06:10 13.5 76.4 1012.0 0.0 NNE 0.0 W 0.0 227.7
06:15 13.9 74.0 1012.0 0.0 NNE 0.0 W 0.0 243.6
06:20 14.0 73.2 1012.0 0.0 NNE 0.0 WSW 0.0 259.6
06:25 14.1 72.3 1012.0 0.0 NNE 0.0 WSW 0.0 276.1
06:30 13.7 71.1 1012.0 0.0 NNE 0.0 NW 0.0 291.3
06:35 14.0 70.0 1012.1 0.0 NNE 0.0 NW 0.0 309.2
06:40 14.6 69.1 1012.1 0.0 NNE 0.0 W 0.0 324.9
06:45 15.2 66.9 1012.2 0.0 NNE 0.0 WSW 0.0 339.8
06:50 15.5 64.8 1012.2 0.0 NNE 0.0 SW 0.0 356.5
06:55 15.7 63.0 1012.2 0.0 NNE 0.0 SSW 0.0 371.5
07:00 15.8 62.9 1012.2 0.0 NNE 0.0 SSW 0.0 387.6
07:05 16.0 56.9 1012.1 2.9 SSW 8.8 S 0.0 404.0
07:10 16.4 56.1 1012.2 1.5 SW 8.8 WSW 0.0 420.3
07:15 16.8 53.6 1012.2 4.1 SW 11.5 WSW 0.0 436.3
07:20 17.2 54.0 1012.2 1.3 SW 6.1 SW 0.0 453.1
07:25 17.4 51.6 1012.2 1.4 SSW 8.8 S 0.0 469.0
07:30 17.4 49.0 1012.1 4.2 SW 11.5 WSW 0.0 484.9
07:35 17.1 49.8 1012.1 2.8 W 11.5 WSW 0.0 500.5
07:40 17.2 49.6 1012.1 0.1 S 3.4 S 0.0 515.8
07:45 17.3 57.4 1012.1 4.2 NNE 11.5 N 0.0 529.1
07:50 16.5 65.0 1012.0 4.8 ENE 8.8 NE 0.0 543.7
07:55 16.3 67.9 1012.1 4.2 NE 8.8 ENE 0.0 558.1
08:00 16.1 69.6 1012.1 5.1 ENE 11.5 E 0.0 573.8
08:05 15.6 72.1 1012.0 6.6 ENE 11.5 NNE 0.0 587.9
08:10 15.2 74.0 1012.1 3.0 ENE 11.5 ENE 0.0 545.0
08:15 15.0 75.1 1012.2 3.4 SE 8.8 ESE 0.0 106.8
08:20 14.0 78.9 1012.3 6.8 SSE 16.9 S 0.0 79.8
08:25 13.4 83.0 1012.3 4.2 S 11.5 SSE 0.0 135.0
08:30 13.0 84.6 1012.3 0.5 SSE 6.1 SSW 0.0 102.2
08:35 12.9 86.2 1012.3 2.3 ENE 8.8 ENE 0.0 244.0
08:40 13.0 86.7 1012.3 3.0 NE 8.8 ENE 0.0 502.9
08:45 13.4 86.4 1012.2 0.9 NE 8.8 NE 0.0 582.8
08:50 14.0 84.6 1012.2 1.5 ENE 8.8 E 0.0 617.4
08:55 14.6 82.2 1012.2 2.3 NNE 8.8 N 0.0 711.4
09:00 15.1 79.3 1012.1 5.0 ENE 11.5 E 0.0 724.3
09:05 15.4 77.3 1012.1 5.2 ENE 14.2 E 0.0 738.8
09:10 15.7 75.5 1012.1 5.6 ENE 14.2 ENE 0.0 785.2
09:15 16.0 73.4 1012.2 3.2 ENE 8.8 ENE 0.0 555.2
09:20 16.0 73.1 1012.2 4.2 ENE 8.8 ENE 0.0 320.5
09:25 15.6 73.9 1012.2 1.6 ENE 11.5 ENE 0.0 181.5
09:30 15.1 75.8 1012.2 1.6 ENE 8.8 NE 0.0 143.7
09:35 15.0 76.9 1012.3 1.6 SSE 11.5 SSE 0.0 110.3
09:40 14.5 78.7 1012.4 5.2 SE 11.5 ESE 0.0 81.3
09:45 14.0 80.5 1012.6 7.0 SSE 16.9 S 0.0 70.4
09:50 13.6 83.2 1012.6 9.7 S 16.9 SSE 0.0 85.3
09:55 13.3 85.8 1012.6 7.9 SSE 19.6 SSE 0.0 87.4
10:00 12.8 87.7 1012.6 8.1 SE 16.9 SE 0.0 54.3
10:05 12.6 89.8 1012.4 3.1 SE 11.5 SE 0.1 119.4
10:10 12.6 90.8 1012.1 0.0 NNE 0.0 NNE 0.0 182.5
10:15 12.7 91.4 1012.0 0.0 NNE 0.0 NE 0.0 253.6
10:20 13.1 91.8 1012.0 0.0 NNE 0.0 N 0.0 312.6
10:25 13.2 91.5 1012.1 0.0 NNE 0.0 N 0.0 354.1
10:30 13.5 91.1 1012.2 0.0 NNE 0.0 NNE 0.0 576.4
10:35 14.0 90.4 1012.3 1.3 ENE 8.8 E 0.0 417.5
10:40 14.0 88.5 1012.3 3.9 ENE 11.5 ENE 0.0 229.1
10:45 13.8 88.4 1012.3 3.9 ENE 11.5 NE 0.0 174.7
10:50 13.3 89.2 1012.3 7.2 ENE 16.9 E 0.0 184.2
10:55 13.0 90.2 1012.3 8.1 ENE 14.2 ENE 0.0 191.9
11:00 12.7 90.9 1012.3 7.7 E 14.2 E 0.0 121.4
11:05 12.8 91.8 1012.3 1.8 E 14.2 ENE 0.0 141.0
11:10 12.7 92.0 1012.3 7.4 E 16.9 E 0.0 91.2
11:15 12.6 92.3 1012.2 4.4 ESE 14.2 ESE 0.0 48.9
11:20 12.4 92.7 1012.2 10.1 ESE 22.3 SE 0.0 123.3
11:25 12.4 93.0 1012.2 2.9 ESE 19.6 ESE 0.0 197.8
11:30 12.8 93.4 1012.1 5.2 SSE 16.9 SE 0.0 675.2
11:35 13.2 92.3 1012.1 5.4 ESE 16.9 E 0.0 330.9
11:40 13.4 91.0 1012.1 2.0 SE 14.2 SE 0.0 279.6
11:45 13.5 89.5 1012.1 0.0 NNE 0.0 SE 0.0 434.7
11:50 13.9 87.4 1012.1 0.1 SSE 8.8 SSE 0.0 398.3
11:55 14.2 84.6 1012.0 5.5 SE 14.2 SE 0.0 423.3
12:00 14.4 83.1 1011.9 1.0 S 14.2 S 0.0 152.0
12:05 14.1 83.6 1011.9 5.9 SE 19.6 SE 0.0 146.6
12:10 13.4 84.9 1011.9 8.3 ESE 19.6 SE 0.0 487.4
12:15 13.6 85.7 1011.8 2.0 ESE 11.5 ESE 0.0 419.3
12:20 13.7 83.8 1011.8 6.4 ENE 14.2 ENE 0.0 294.7
12:25 13.6 82.6 1011.8 3.1 ENE 14.2 NE 0.0 161.9
12:30 13.5 82.5 1011.8 4.7 E 11.5 E 0.0 171.1
12:35 13.3 82.1 1011.7 2.7 ENE 14.2 ENE 0.0 232.7
12:40 13.4 82.4 1011.7 3.6 SE 14.2 SE 0.0 382.9
12:45 13.5 81.9 1011.6 2.3 ESE 8.8 ESE 0.0 278.3
12:50 13.7 81.5 1011.7 6.3 SE 14.2 S 0.0 218.3
12:55 13.9 81.2 1011.6 8.0 ESE 16.9 ESE 0.0 336.1
13:00 14.0 81.2 1011.5 8.6 E 16.9 ESE 0.0 376.0
13:05 14.3 81.0 1011.5 5.2 E 14.2 ENE 0.0 399.0
13:10 14.5 79.7 1011.5 2.4 E 16.9 ESE 0.0 251.9
13:15 14.6 80.0 1011.4 4.7 E 14.2 E 0.0 671.7
13:20 14.9 78.6 1011.4 3.9 E 11.5 NE 0.0 206.2
13:25 14.6 77.9 1011.4 7.0 ESE 14.2 SSE 0.0 179.7
13:30 14.2 79.5 1011.4 10.3 ESE 16.9 ESE 0.0 186.7
13:35 13.9 81.5 1011.5 8.4 ESE 19.6 SE 0.0 227.1
13:40 13.9 82.5 1011.4 4.8 SE 14.2 ESE 0.0 198.6
13:45 13.8 83.0 1011.3 4.8 SE 11.5 SE 0.0 222.5
13:50 13.9 82.8 1011.3 2.2 SE 14.2 SSW 0.0 176.9
13:55 13.9 82.4 1011.3 3.5 ESE 14.2 SE 0.0 71.0
14:00 13.8 82.4 1011.3 0.1 SE 6.1 ESE 0.0 90.5
14:05 13.7 81.9 1011.3 0.9 SSE 8.8 SE 0.0 61.2
14:10 13.6 82.2 1011.2 1.6 SSW 8.8 SSW 0.0 38.8
14:15 13.6 82.5 1011.2 0.0 NNE 0.0 WSW 0.0 52.3
14:20 13.6 82.6 1011.1 1.7 SSW 8.8 SW 0.0 224.6
14:25 13.9 81.9 1011.2 0.0 NNE 0.0 SSE 0.0 240.0
14:30 14.2 79.8 1011.1 0.0 NNE 0.0 S 0.0 226.1
14:35 14.4 80.0 1011.0 0.0 NNE 0.0 S 0.0 639.0
14:40 15.1 77.6 1010.9 0.0 NNE 0.0 SE 0.0 847.0
14:45 15.7 74.2 1010.8 0.4 NNE 8.8 NNE 0.0 564.3
14:50 15.4 73.7 1010.7 4.6 NE 14.2 NNE 0.0 250.2
14:55 14.7 76.0 1010.7 4.2 NNE 11.5 ENE 0.0 177.0
15:00 14.3 77.6 1010.7 3.8 ESE 11.5 ESE 0.0 112.7
Máxima 17.4 94.1 1012.6 10.3 ESE 22.3 SE 0.1 847.0
Mínima 7.0 49.0 1010.7
Total 0.1